Wetterdaten: Mittwoch, 11.03.2015
Datum Zeit Auen-Temp. A-Temp. 2 Luftfeuchte Luftfeuchte Luftdruck Regen Wind Richtung Richtung Taupunkt Windchill Windben
11.03.2015 00:00 2,6 C 2,9 C 65 % 65 % 1027,6 hPa 0,0 l/m 1,4 km/h (1 Bft) SO 135 -3,0 C 2,3 C 2,6 km/h (1 Bft)
11.03.2015 00:05 2,7 C 3,1 C 64 % 64 % 1027,4 hPa 0,0 l/m 1,3 km/h (1 Bft) O-SO 112 -3,0 C 2,3 C 0,0 km/h (0 Bft)
11.03.2015 00:10 2,3 C 2,7 C 65 % 65 % 1027,4 hPa 0,0 l/m 1,0 km/h (0 Bft) O-SO 112 -3,2 C 2,3 C 2,3 km/h (1 Bft)
11.03.2015 00:15 2,2 C 2,5 C 65 % 65 % 1027,4 hPa 0,0 l/m 0,3 km/h (0 Bft) O-SO 112 -3,4 C 2,1 C 0,0 km/h (0 Bft)
11.03.2015 00:20 2,1 C 2,4 C 65 % 65 % 1027,4 hPa 0,0 l/m 0,3 km/h (0 Bft) O-SO 112 -3,5 C 2,0 C 0,0 km/h (0 Bft)
11.03.2015 00:25 2,5 C 2,5 C 66 % 66 % 1026,5 hPa 0,0 l/m 0,6 km/h (0 Bft) SO 135 -3,2 C 1,8 C 3,2 km/h (1 Bft)
11.03.2015 00:30 3,0 C 3,1 C 65 % 65 % 1026,5 hPa 0,0 l/m 1,3 km/h (1 Bft) S-SO 157 -2,8 C 2,2 C 2,3 km/h (1 Bft)
11.03.2015 00:35 2,4 C 2,8 C 66 % 66 % 1026,5 hPa 0,0 l/m 1,1 km/h (1 Bft) S-SO 157 -2,9 C 2,3 C 0,0 km/h (0 Bft)
11.03.2015 00:40 2,0 C 2,5 C 66 % 66 % 1026,5 hPa 0,0 l/m 0,2 km/h (0 Bft) S-SO 157 -3,2 C 2,1 C 0,0 km/h (0 Bft)
11.03.2015 00:45 1,9 C 2,2 C 66 % 66 % 1026,5 hPa 0,0 l/m 0,0 km/h (0 Bft) S-SO 157 -3,5 C 1,8 C 0,0 km/h (0 Bft)
11.03.2015 00:50 1,9 C 2,2 C 67 % 67 % 1026,5 hPa 0,0 l/m 0,0 km/h (0 Bft) SO 135 -3,3 C 1,8 C 0,0 km/h (0 Bft)
11.03.2015 00:55 2,1 C 2,3 C 67 % 67 % 1026,5 hPa 0,0 l/m 0,0 km/h (0 Bft) SO 135 -3,2 C 1,8 C 0,0 km/h (0 Bft)
11.03.2015 01:00 2,0 C 2,3 C 67 % 67 % 1026,5 hPa 0,0 l/m 0,0 km/h (0 Bft) SO 135 -3,2 C 1,8 C 0,0 km/h (0 Bft)
11.03.2015 01:05 2,4 C 2,5 C 68 % 68 % 1026,6 hPa 0,0 l/m 0,0 km/h (0 Bft) SO 135 -2,8 C 1,9 C 0,0 km/h (0 Bft)
11.03.2015 01:10 2,6 C 2,7 C 68 % 68 % 1026,6 hPa 0,0 l/m 0,0 km/h (0 Bft) SO 135 -2,6 C 2,1 C 1,6 km/h (1 Bft)
11.03.2015 01:15 2,7 C 2,9 C 68 % 68 % 1026,6 hPa 0,0 l/m 0,5 km/h (0 Bft) SO 135 -2,4 C 2,4 C 0,0 km/h (0 Bft)
11.03.2015 01:20 2,5 C 2,7 C 68 % 68 % 1026,6 hPa 0,0 l/m 0,5 km/h (0 Bft) O-SO 112 -2,6 C 2,4 C 0,0 km/h (0 Bft)
11.03.2015 01:25 2,9 C 3,1 C 67 % 67 % 1026,7 hPa 0,0 l/m 0,2 km/h (0 Bft) O-SO 112 -2,4 C 2,6 C 0,0 km/h (0 Bft)
11.03.2015 01:30 3,1 C 3,4 C 67 % 67 % 1026,7 hPa 0,0 l/m 0,5 km/h (0 Bft) S-SO 157 -2,1 C 2,8 C 2,6 km/h (1 Bft)
11.03.2015 01:35 3,6 C 3,8 C 67 % 67 % 1026,7 hPa 0,0 l/m 1,4 km/h (1 Bft) SO 135 -1,8 C 3,2 C 3,5 km/h (1 Bft)
11.03.2015 01:40 3,4 C 3,7 C 67 % 67 % 1026,7 hPa 0,0 l/m 1,9 km/h (1 Bft) S-SO 157 -1,8 C 3,3 C 3,2 km/h (1 Bft)
11.03.2015 01:45 3,0 C 3,3 C 67 % 67 % 1026,5 hPa 0,0 l/m 1,3 km/h (1 Bft) S-SO 157 -2,2 C 3,1 C 2,9 km/h (1 Bft)
11.03.2015 01:50 3,4 C 3,6 C 67 % 67 % 1026,5 hPa 0,0 l/m 1,8 km/h (1 Bft) S-SO 157 -1,9 C 3,2 C 4,7 km/h (1 Bft)
11.03.2015 01:55 3,0 C 3,6 C 67 % 67 % 1026,5 hPa 0,0 l/m 1,8 km/h (1 Bft) O-SO 112 -1,9 C 3,4 C 0,0 km/h (0 Bft)
11.03.2015 02:00 2,5 C 3,1 C 67 % 67 % 1026,5 hPa 0,0 l/m 0,8 km/h (0 Bft) O-SO 112 -2,4 C 3,1 C 0,0 km/h (0 Bft)
11.03.2015 02:05 2,2 C 2,6 C 68 % 68 % 1026,4 hPa 0,0 l/m 0,0 km/h (0 Bft) O-SO 112 -2,7 C 2,6 C 0,0 km/h (0 Bft)
11.03.2015 02:10 2,1 C 2,5 C 68 % 68 % 1026,4 hPa 0,0 l/m 0,0 km/h (0 Bft) O-SO 112 -2,8 C 2,4 C 0,0 km/h (0 Bft)
11.03.2015 02:15 2,5 C 2,6 C 69 % 69 % 1026,4 hPa 0,0 l/m 0,0 km/h (0 Bft) SW 225 -2,5 C 2,4 C 0,0 km/h (0 Bft)
11.03.2015 02:20 2,5 C 2,6 C 69 % 69 % 1026,4 hPa 0,0 l/m 0,0 km/h (0 Bft) S-SW 202 -2,5 C 2,4 C 0,0 km/h (0 Bft)
11.03.2015 02:25 3,2 C 3,2 C 69 % 69 % 1026,1 hPa 0,0 l/m 0,2 km/h (0 Bft) S 180 -1,9 C 2,7 C 0,0 km/h (0 Bft)
11.03.2015 02:30 3,5 C 3,6 C 70 % 70 % 1026,1 hPa 0,0 l/m 0,6 km/h (0 Bft) S 180 -1,3 C 3,1 C 2,6 km/h (1 Bft)
11.03.2015 02:35 3,6 C 4,0 C 70 % 70 % 1026,1 hPa 0,0 l/m 1,1 km/h (1 Bft) S 180 -1,0 C 3,4 C 2,9 km/h (1 Bft)
11.03.2015 02:40 3,6 C 4,0 C 69 % 69 % 1026,1 hPa 0,0 l/m 1,4 km/h (1 Bft) S 180 -1,2 C 3,5 C 3,7 km/h (1 Bft)
11.03.2015 02:45 3,4 C 3,8 C 70 % 70 % 1025,8 hPa 0,0 l/m 0,8 km/h (0 Bft) S 180 -1,2 C 3,5 C 0,0 km/h (0 Bft)
11.03.2015 02:50 3,4 C 3,8 C 70 % 70 % 1025,8 hPa 0,0 l/m 0,5 km/h (0 Bft) SW 225 -1,2 C 3,4 C 2,1 km/h (1 Bft)
11.03.2015 02:55 3,6 C 3,8 C 70 % 70 % 1025,8 hPa 0,0 l/m 0,8 km/h (0 Bft) S 180 -1,2 C 3,4 C 2,7 km/h (1 Bft)
11.03.2015 03:00 3,9 C 4,0 C 70 % 70 % 1025,8 hPa 0,0 l/m 2,1 km/h (1 Bft) S-SW 202 -1,0 C 3,6 C 4,2 km/h (1 Bft)
11.03.2015 03:05 3,8 C 4,0 C 70 % 70 % 1025,5 hPa 0,0 l/m 2,4 km/h (1 Bft) S-SO 157 -1,0 C 3,7 C 5,3 km/h (1 Bft)
11.03.2015 03:10 2,7 C 3,4 C 70 % 70 % 1025,5 hPa 0,0 l/m 1,1 km/h (1 Bft) SO 135 -1,5 C 3,3 C 0,0 km/h (0 Bft)
11.03.2015 03:15 2,2 C 2,7 C 71 % 71 % 1025,5 hPa 0,0 l/m 0,0 km/h (0 Bft) SO 135 -2,0 C 2,3 C 0,0 km/h (0 Bft)
11.03.2015 03:20 2,1 C 2,5 C 71 % 71 % 1025,5 hPa 0,0 l/m 0,0 km/h (0 Bft) SO 135 -2,2 C 1,9 C 0,0 km/h (0 Bft)
11.03.2015 03:25 2,0 C 2,3 C 71 % 71 % 1025,6 hPa 0,0 l/m 0,0 km/h (0 Bft) SO 135 -2,4 C 1,5 C 0,0 km/h (0 Bft)
11.03.2015 03:30 1,9 C 2,2 C 72 % 72 % 1025,6 hPa 0,0 l/m 0,0 km/h (0 Bft) SO 135 -2,3 C 1,3 C 0,0 km/h (0 Bft)
11.03.2015 03:35 2,0 C 2,2 C 72 % 72 % 1025,6 hPa 0,0 l/m 0,0 km/h (0 Bft) SO 135 -2,3 C 1,2 C 0,0 km/h (0 Bft)
11.03.2015 03:40 2,2 C 2,3 C 73 % 73 % 1025,6 hPa 0,0 l/m 0,0 km/h (0 Bft) SO 135 -2,0 C 1,4 C 0,0 km/h (0 Bft)
11.03.2015 03:45 2,2 C 2,4 C 74 % 74 % 1025,9 hPa 0,0 l/m 0,0 km/h (0 Bft) SO 135 -1,7 C 1,5 C 0,0 km/h (0 Bft)
11.03.2015 03:50 2,5 C 2,5 C 74 % 74 % 1025,9 hPa 0,0 l/m 0,2 km/h (0 Bft) SW 225 -1,7 C 1,6 C 1,9 km/h (1 Bft)
11.03.2015 03:55 2,3 C 2,4 C 75 % 75 % 1025,9 hPa 0,0 l/m 0,5 km/h (0 Bft) S 180 -1,6 C 1,8 C 3,9 km/h (1 Bft)
11.03.2015 04:00 2,8 C 2,7 C 75 % 75 % 1025,9 hPa 0,0 l/m 1,3 km/h (1 Bft) S 180 -1,3 C 2,0 C 3,5 km/h (1 Bft)
11.03.2015 04:05 2,9 C 3,1 C 75 % 75 % 1025,4 hPa 0,0 l/m 2,1 km/h (1 Bft) S 180 -0,9 C 2,2 C 3,4 km/h (1 Bft)
11.03.2015 04:10 2,9 C 3,1 C 75 % 75 % 1025,4 hPa 0,0 l/m 2,3 km/h (1 Bft) S 180 -0,9 C 2,3 C 4,0 km/h (1 Bft)
11.03.2015 04:15 2,9 C 3,2 C 75 % 75 % 1025,4 hPa 0,0 l/m 1,4 km/h (1 Bft) W-SW 247 -0,8 C 2,3 C 0,0 km/h (0 Bft)
11.03.2015 04:20 2,4 C 2,8 C 76 % 76 % 1025,4 hPa 0,0 l/m 0,6 km/h (0 Bft) S 180 -1,0 C 2,2 C 0,0 km/h (0 Bft)
11.03.2015 04:25 2,6 C 2,7 C 76 % 76 % 1025,5 hPa 0,0 l/m 0,3 km/h (0 Bft) N-NW 337 -1,1 C 2,0 C 1,6 km/h (1 Bft)
11.03.2015 04:30 2,8 C 2,9 C 76 % 76 % 1025,5 hPa 0,0 l/m 0,6 km/h (0 Bft) S 180 -0,9 C 2,2 C 0,0 km/h (0 Bft)
11.03.2015 04:35 2,1 C 2,7 C 76 % 76 % 1025,5 hPa 0,0 l/m 0,5 km/h (0 Bft) NO 45 -1,1 C 2,1 C 0,0 km/h (0 Bft)
11.03.2015 04:40 1,8 C 2,3 C 76 % 76 % 1025,5 hPa 0,0 l/m 0,2 km/h (0 Bft) NO 45 -1,5 C 1,7 C 0,0 km/h (0 Bft)
11.03.2015 04:45 1,9 C 2,1 C 76 % 76 % 1025,4 hPa 0,0 l/m 0,0 km/h (0 Bft) S 180 -1,7 C 1,5 C 2,1 km/h (1 Bft)
11.03.2015 04:50 2,1 C 2,3 C 76 % 76 % 1025,4 hPa 0,0 l/m 0,3 km/h (0 Bft) NW 315 -1,5 C 1,5 C 0,0 km/h (0 Bft)
11.03.2015 04:55 1,9 C 2,2 C 76 % 76 % 1025,4 hPa 0,0 l/m 0,6 km/h (0 Bft) S 180 -1,6 C 1,5 C 2,7 km/h (1 Bft)
11.03.2015 05:00 2,8 C 2,6 C 77 % 77 % 1025,4 hPa 0,0 l/m 1,4 km/h (1 Bft) SW 225 -1,0 C 1,8 C 3,9 km/h (1 Bft)
11.03.2015 05:05 3,1 C 3,1 C 76 % 76 % 1025,4 hPa 0,0 l/m 3,2 km/h (1 Bft) S-SW 202 -0,7 C 2,1 C 7,6 km/h (2 Bft)
11.03.2015 05:10 3,1 C 3,2 C 76 % 76 % 1025,4 hPa 0,0 l/m 3,5 km/h (1 Bft) SW 225 -0,6 C 2,1 C 3,4 km/h (1 Bft)
11.03.2015 05:15 3,2 C 3,4 C 76 % 76 % 1025,4 hPa 0,0 l/m 3,7 km/h (1 Bft) SW 225 -0,4 C 2,3 C 4,7 km/h (1 Bft)
11.03.2015 05:20 3,2 C 3,4 C 76 % 76 % 1025,4 hPa 0,0 l/m 4,5 km/h (1 Bft) S 180 -0,4 C 2,0 C 6,0 km/h (2 Bft)
11.03.2015 05:25 3,3 C 3,5 C 76 % 76 % 1025,2 hPa 0,0 l/m 5,3 km/h (1 Bft) O-SO 112 -0,3 C 1,8 C 7,4 km/h (2 Bft)
11.03.2015 05:30 3,4 C 3,5 C 76 % 76 % 1025,2 hPa 0,0 l/m 5,5 km/h (1 Bft) S 180 -0,3 C 1,7 C 8,0 km/h (2 Bft)
11.03.2015 05:35 3,5 C 3,6 C 76 % 76 % 1025,2 hPa 0,0 l/m 5,1 km/h (1 Bft) SW 225 -0,2 C 2,0 C 8,9 km/h (2 Bft)
11.03.2015 05:40 3,5 C 3,7 C 76 % 76 % 1025,2 hPa 0,0 l/m 4,8 km/h (1 Bft) S-SW 202 -0,1 C 2,2 C 8,7 km/h (2 Bft)
11.03.2015 05:45 3,7 C 3,8 C 77 % 77 % 1025,2 hPa 0,0 l/m 4,5 km/h (1 Bft) S-SW 202 0,1 C 2,4 C 4,0 km/h (1 Bft)
11.03.2015 05:50 3,7 C 4,0 C 76 % 76 % 1025,2 hPa 0,0 l/m 5,1 km/h (1 Bft) S-SO 157 0,2 C 2,3 C 4,8 km/h (1 Bft)
11.03.2015 05:55 3,9 C 4,0 C 76 % 76 % 1025,2 hPa 0,0 l/m 5,0 km/h (1 Bft) S 180 0,2 C 2,6 C 6,4 km/h (2 Bft)
11.03.2015 06:00 3,9 C 4,0 C 76 % 76 % 1025,2 hPa 0,0 l/m 4,8 km/h (1 Bft) W-NW 292 0,2 C 2,8 C 5,0 km/h (1 Bft)
11.03.2015 06:05 3,8 C 4,0 C 76 % 76 % 1025,3 hPa 0,0 l/m 3,7 km/h (1 Bft) W 270 0,2 C 3,3 C 2,3 km/h (1 Bft)
11.03.2015 06:10 3,8 C 3,6 C 76 % 76 % 1025,3 hPa 0,0 l/m 1,6 km/h (1 Bft) O 90 -0,2 C 3,5 C 0,0 km/h (0 Bft)
11.03.2015 06:15 2,7 C 3,2 C 76 % 76 % 1025,3 hPa 0,0 l/m 0,0 km/h (0 Bft) O 90 -0,6 C 3,0 C 0,0 km/h (0 Bft)
11.03.2015 06:20 2,7 C 3,1 C 76 % 76 % 1025,3 hPa 0,0 l/m 0,0 km/h (0 Bft) S 180 -0,7 C 2,8 C 0,0 km/h (0 Bft)
11.03.2015 06:25 2,9 C 3,2 C 76 % 76 % 1025,7 hPa 0,0 l/m 0,5 km/h (0 Bft) SW 225 -0,6 C 2,6 C 2,9 km/h (1 Bft)
11.03.2015 06:30 3,3 C 3,4 C 76 % 76 % 1025,7 hPa 0,0 l/m 1,6 km/h (1 Bft) SW 225 -0,4 C 2,7 C 3,5 km/h (1 Bft)
11.03.2015 06:35 3,4 C 3,6 C 77 % 77 % 1025,7 hPa 0,0 l/m 2,9 km/h (1 Bft) W 270 -0,0 C 2,7 C 2,3 km/h (1 Bft)
11.03.2015 06:40 3,4 C 3,6 C 77 % 77 % 1025,7 hPa 0,0 l/m 2,7 km/h (1 Bft) W-SW 247 -0,0 C 2,9 C 5,5 km/h (1 Bft)
11.03.2015 06:45 3,3 C 3,6 C 77 % 77 % 1025,9 hPa 0,0 l/m 2,3 km/h (1 Bft) NW 315 -0,0 C 2,9 C 2,6 km/h (1 Bft)
11.03.2015 06:50 3,3 C 3,6 C 77 % 77 % 1025,9 hPa 0,0 l/m 2,4 km/h (1 Bft) W 270 -0,0 C 2,8 C 2,9 km/h (1 Bft)
11.03.2015 06:55 3,3 C 3,5 C 77 % 77 % 1025,9 hPa 0,0 l/m 2,1 km/h (1 Bft) SW 225 -0,1 C 2,8 C 3,4 km/h (1 Bft)
11.03.2015 07:00 3,2 C 3,5 C 77 % 77 % 1025,9 hPa 0,0 l/m 2,4 km/h (1 Bft) S-SW 202 -0,1 C 2,7 C 2,7 km/h (1 Bft)
11.03.2015 07:05 3,3 C 3,5 C 78 % 78 % 1026,2 hPa 0,0 l/m 3,5 km/h (1 Bft) S 180 0,0 C 2,3 C 3,9 km/h (1 Bft)
11.03.2015 07:10 3,2 C 3,5 C 78 % 78 % 1026,2 hPa 0,0 l/m 3,7 km/h (1 Bft) S 180 0,0 C 2,2 C 5,3 km/h (1 Bft)
11.03.2015 07:15 3,2 C 3,4 C 78 % 78 % 1026,2 hPa 0,0 l/m 3,5 km/h (1 Bft) S 180 -0,1 C 2,3 C 3,5 km/h (1 Bft)
11.03.2015 07:20 3,1 C 3,4 C 78 % 78 % 1026,2 hPa 0,0 l/m 3,7 km/h (1 Bft) W-SW 247 -0,1 C 2,2 C 4,3 km/h (1 Bft)
11.03.2015 07:25 3,1 C 3,3 C 78 % 78 % 1026,3 hPa 0,0 l/m 4,2 km/h (1 Bft) S-SW 202 -0,2 C 1,9 C 7,4 km/h (2 Bft)
11.03.2015 07:30 3,1 C 3,3 C 79 % 79 % 1026,3 hPa 0,0 l/m 4,3 km/h (1 Bft) SW 225 0,0 C 1,8 C 6,4 km/h (2 Bft)
11.03.2015 07:35 3,1 C 3,3 C 79 % 79 % 1026,3 hPa 0,0 l/m 3,9 km/h (1 Bft) W-SW 247 0,0 C 2,1 C 2,3 km/h (1 Bft)
11.03.2015 07:40 3,1 C 3,3 C 79 % 79 % 1026,3 hPa 0,0 l/m 3,2 km/h (1 Bft) SW 225 0,0 C 2,4 C 4,3 km/h (1 Bft)
11.03.2015 07:45 3,1 C 3,2 C 79 % 79 % 1026,2 hPa 0,0 l/m 2,3 km/h (1 Bft) W 270 -0,1 C 2,8 C 0,0 km/h (0 Bft)
11.03.2015 07:50 3,1 C 3,2 C 79 % 79 % 1026,2 hPa 0,0 l/m 2,1 km/h (1 Bft) W-SW 247 -0,1 C 2,9 C 1,9 km/h (1 Bft)
11.03.2015 07:55 3,1 C 3,3 C 80 % 80 % 1026,2 hPa 0,0 l/m 2,6 km/h (1 Bft) S 180 0,2 C 2,9 C 4,5 km/h (1 Bft)
11.03.2015 08:00 3,1 C 3,2 C 80 % 80 % 1026,2 hPa 0,0 l/m 3,2 km/h (1 Bft) S 180 0,1 C 2,6 C 2,7 km/h (1 Bft)
11.03.2015 08:05 3,2 C 3,3 C 80 % 80 % 1026,5 hPa 0,0 l/m 3,7 km/h (1 Bft) W-SW 247 0,2 C 2,3 C 5,1 km/h (1 Bft)
11.03.2015 08:10 3,1 C 3,3 C 80 % 80 % 1026,5 hPa 0,0 l/m 4,7 km/h (1 Bft) W-NW 292 0,2 C 1,8 C 13,5 km/h (3 Bft)
11.03.2015 08:15 2,7 C 2,9 C 82 % 82 % 1026,5 hPa 0,0 l/m 6,1 km/h (2 Bft) N-NW 337 0,1 C 0,9 C 14,2 km/h (3 Bft)
11.03.2015 08:20 2,6 C 2,8 C 82 % 82 % 1026,5 hPa 0,0 l/m 6,8 km/h (2 Bft) SW 225 0,0 C -0,1 C 6,1 km/h (2 Bft)
11.03.2015 08:25 2,4 C 2,6 C 82 % 82 % 1026,9 hPa 0,0 l/m 4,5 km/h (1 Bft) NW 315 -0,2 C 1,2 C 5,3 km/h (1 Bft)
11.03.2015 08:30 2,4 C 2,5 C 82 % 82 % 1026,9 hPa 0,0 l/m 3,5 km/h (1 Bft) W-NW 292 -0,3 C 1,6 C 3,1 km/h (1 Bft)
11.03.2015 08:35 2,3 C 2,4 C 82 % 82 % 1026,9 hPa 0,0 l/m 3,1 km/h (1 Bft) NW 315 -0,4 C 1,7 C 4,7 km/h (1 Bft)
11.03.2015 08:40 2,3 C 2,3 C 82 % 82 % 1026,9 hPa 0,0 l/m 3,4 km/h (1 Bft) W 270 -0,4 C 1,4 C 0,0 km/h (0 Bft)
11.03.2015 08:45 2,3 C 2,3 C 82 % 82 % 1027,3 hPa 0,0 l/m 2,7 km/h (1 Bft) W-SW 247 -0,4 C 1,8 C 0,0 km/h (0 Bft)
11.03.2015 08:50 2,3 C 2,3 C 82 % 82 % 1027,3 hPa 0,0 l/m 1,3 km/h (1 Bft) W 270 -0,4 C 2,0 C 1,8 km/h (1 Bft)
11.03.2015 08:55 2,3 C 2,2 C 82 % 82 % 1027,3 hPa 0,0 l/m 0,5 km/h (0 Bft) W-SW 247 -0,5 C 2,0 C 0,0 km/h (0 Bft)
11.03.2015 09:00 2,3 C 2,2 C 82 % 82 % 1027,3 hPa 0,0 l/m 1,1 km/h (1 Bft) S 180 -0,5 C 2,0 C 2,4 km/h (1 Bft)
11.03.2015 09:05 2,2 C 2,1 C 82 % 82 % 1027,1 hPa 0,0 l/m 1,0 km/h (0 Bft) S-SO 157 -0,6 C 1,9 C 0,0 km/h (0 Bft)
11.03.2015 09:10 2,2 C 2,1 C 82 % 82 % 1027,1 hPa 0,0 l/m 1,0 km/h (0 Bft) S 180 -0,6 C 1,8 C 0,0 km/h (0 Bft)
11.03.2015 09:15 2,0 C 2,0 C 82 % 82 % 1027,1 hPa 0,0 l/m 1,1 km/h (1 Bft) S 180 -0,7 C 1,8 C 2,9 km/h (1 Bft)
11.03.2015 09:20 2,0 C 1,8 C 82 % 82 % 1027,1 hPa 0,0 l/m 1,3 km/h (1 Bft) S-SO 157 -0,9 C 1,6 C 2,1 km/h (1 Bft)
11.03.2015 09:25 1,9 C 1,7 C 82 % 82 % 1027,1 hPa 0,0 l/m 1,8 km/h (1 Bft) S 180 -1,0 C 1,6 C 2,6 km/h (1 Bft)
11.03.2015 09:30 1,9 C 1,7 C 82 % 82 % 1027,1 hPa 0,0 l/m 2,1 km/h (1 Bft) S 180 -1,0 C 1,5 C 4,8 km/h (1 Bft)
11.03.2015 09:31 1,8 C 1,7 C 82 % 82 % 1027,1 hPa 0,0 l/m 1,9 km/h (1 Bft) S-SO 157 -1,0 C 1,5 C 1,8 km/h (1 Bft)
11.03.2015 09:35 1,8 C 1,7 C 82 % 82 % 1027,1 hPa 0,0 l/m 1,9 km/h (1 Bft) S-SO 157 -1,0 C 1,5 C 1,8 km/h (1 Bft)
11.03.2015 09:40 1,8 C 1,6 C 82 % 82 % 1027,1 hPa 0,0 l/m 1,9 km/h (1 Bft) S 180 -1,1 C 1,5 C 4,2 km/h (1 Bft)
11.03.2015 09:45 1,8 C 1,6 C 82 % 82 % 1027,1 hPa 0,0 l/m 1,4 km/h (1 Bft) S 180 -1,1 C 1,5 C 3,4 km/h (1 Bft)
11.03.2015 09:50 1,6 C 1,5 C 82 % 82 % 1026,6 hPa 0,0 l/m 1,4 km/h (1 Bft) O 90 -1,2 C 1,4 C 3,7 km/h (1 Bft)
11.03.2015 09:55 1,8 C 1,5 C 82 % 82 % 1026,6 hPa 0,0 l/m 1,1 km/h (1 Bft) S-SW 202 -1,2 C 1,4 C 0,0 km/h (0 Bft)
11.03.2015 10:00 1,7 C 1,5 C 82 % 82 % 1026,6 hPa 0,0 l/m 0,8 km/h (0 Bft) S 180 -1,2 C 1,4 C 3,7 km/h (1 Bft)
11.03.2015 10:05 1,5 C 1,4 C 82 % 82 % 1026,6 hPa 0,0 l/m 1,8 km/h (1 Bft) S 180 -1,3 C 1,2 C 0,0 km/h (0 Bft)
11.03.2015 10:10 1,4 C 1,4 C 82 % 82 % 1026,5 hPa 0,0 l/m 1,6 km/h (1 Bft) SW 225 -1,3 C 1,0 C 2,1 km/h (1 Bft)
11.03.2015 10:15 1,4 C 1,3 C 82 % 82 % 1026,5 hPa 0,0 l/m 1,0 km/h (0 Bft) S 180 -1,4 C 0,9 C 0,0 km/h (0 Bft)
11.03.2015 10:20 1,4 C 1,3 C 82 % 82 % 1026,5 hPa 0,0 l/m 1,3 km/h (1 Bft) S 180 -1,4 C 0,9 C 4,8 km/h (1 Bft)
11.03.2015 10:25 1,4 C 1,2 C 82 % 82 % 1026,5 hPa 0,0 l/m 2,4 km/h (1 Bft) SW 225 -1,5 C 0,9 C 5,3 km/h (1 Bft)
11.03.2015 10:30 1,4 C 1,2 C 82 % 82 % 1026,6 hPa 0,0 l/m 3,2 km/h (1 Bft) SW 225 -1,5 C 0,4 C 3,1 km/h (1 Bft)
11.03.2015 10:35 1,4 C 1,2 C 83 % 83 % 1026,6 hPa 0,0 l/m 2,9 km/h (1 Bft) S-SW 202 -1,4 C 0,6 C 4,5 km/h (1 Bft)
11.03.2015 10:40 1,4 C 1,2 C 83 % 83 % 1026,6 hPa 0,0 l/m 2,6 km/h (1 Bft) SW 225 -1,4 C 0,8 C 2,4 km/h (1 Bft)
11.03.2015 10:45 1,5 C 1,2 C 83 % 83 % 1026,6 hPa 0,0 l/m 2,9 km/h (1 Bft) SW 225 -1,4 C 0,7 C 4,3 km/h (1 Bft)
11.03.2015 10:50 1,5 C 1,3 C 83 % 83 % 1026,6 hPa 0,0 l/m 3,4 km/h (1 Bft) SW 225 -1,3 C 0,4 C 5,3 km/h (1 Bft)
11.03.2015 10:55 1,6 C 1,4 C 83 % 83 % 1026,6 hPa 0,0 l/m 4,0 km/h (1 Bft) S 180 -1,2 C 0,3 C 6,1 km/h (2 Bft)
11.03.2015 11:00 1,8 C 1,4 C 83 % 83 % 1026,6 hPa 0,0 l/m 4,2 km/h (1 Bft) SW 225 -1,2 C 0,2 C 2,3 km/h (1 Bft)
11.03.2015 11:05 1,9 C 1,5 C 83 % 83 % 1026,6 hPa 0,0 l/m 3,5 km/h (1 Bft) S-SW 202 -1,1 C 0,9 C 3,4 km/h (1 Bft)
11.03.2015 11:10 1,9 C 1,5 C 83 % 83 % 1026,5 hPa 0,0 l/m 3,1 km/h (1 Bft) S-SO 157 -1,1 C 1,1 C 2,6 km/h (1 Bft)
11.03.2015 11:15 2,0 C 1,6 C 83 % 83 % 1026,5 hPa 0,0 l/m 3,9 km/h (1 Bft) S 180 -1,0 C 0,7 C 6,8 km/h (2 Bft)
11.03.2015 11:20 2,0 C 1,6 C 83 % 83 % 1026,5 hPa 0,0 l/m 3,9 km/h (1 Bft) S 180 -1,0 C 0,7 C 3,9 km/h (1 Bft)
11.03.2015 11:25 1,9 C 1,7 C 83 % 83 % 1026,5 hPa 0,0 l/m 3,5 km/h (1 Bft) S 180 -0,9 C 0,9 C 3,9 km/h (1 Bft)
11.03.2015 11:30 1,9 C 1,7 C 83 % 83 % 1026,6 hPa 0,0 l/m 3,1 km/h (1 Bft) S-SW 202 -0,9 C 1,1 C 3,1 km/h (1 Bft)
11.03.2015 11:35 2,0 C 1,8 C 83 % 83 % 1026,6 hPa 0,0 l/m 2,9 km/h (1 Bft) SW 225 -0,8 C 1,2 C 7,2 km/h (2 Bft)
11.03.2015 11:40 2,1 C 1,8 C 83 % 83 % 1026,6 hPa 0,0 l/m 3,2 km/h (1 Bft) SW 225 -0,8 C 1,2 C 5,8 km/h (2 Bft)
11.03.2015 11:45 2,1 C 2,0 C 83 % 83 % 1026,6 hPa 0,0 l/m 3,7 km/h (1 Bft) O-NO 67 -0,6 C 0,9 C 3,4 km/h (1 Bft)
11.03.2015 11:50 2,1 C 2,0 C 83 % 83 % 1026,7 hPa 0,0 l/m 3,7 km/h (1 Bft) O-SO 112 -0,6 C 0,9 C 2,9 km/h (1 Bft)
11.03.2015 11:55 2,2 C 2,1 C 83 % 83 % 1026,7 hPa 0,0 l/m 4,0 km/h (1 Bft) S 180 -0,5 C 0,8 C 4,2 km/h (1 Bft)
11.03.2015 12:00 2,3 C 2,1 C 83 % 83 % 1026,7 hPa 0,0 l/m 4,3 km/h (1 Bft) S 180 -0,5 C 0,7 C 6,3 km/h (2 Bft)
11.03.2015 12:05 2,3 C 2,1 C 83 % 83 % 1026,7 hPa 0,0 l/m 4,0 km/h (1 Bft) S-SO 157 -0,5 C 1,0 C 2,9 km/h (1 Bft)
11.03.2015 12:10 2,5 C 2,2 C 83 % 83 % 1026,5 hPa 0,0 l/m 2,6 km/h (1 Bft) S 180 -0,4 C 2,1 C 1,8 km/h (1 Bft)
11.03.2015 12:15 2,5 C 2,2 C 83 % 83 % 1026,5 hPa 0,0 l/m 1,6 km/h (1 Bft) S-SO 157 -0,4 C 2,2 C 1,6 km/h (1 Bft)
11.03.2015 12:20 2,5 C 2,2 C 83 % 83 % 1026,5 hPa 0,0 l/m 1,9 km/h (1 Bft) S-SW 202 -0,4 C 2,3 C 4,0 km/h (1 Bft)
11.03.2015 12:25 2,4 C 2,2 C 83 % 83 % 1026,5 hPa 0,0 l/m 2,4 km/h (1 Bft) S-SO 157 -0,4 C 2,2 C 0,0 km/h (0 Bft)
11.03.2015 12:30 2,3 C 2,2 C 83 % 83 % 1026,6 hPa 0,0 l/m 2,1 km/h (1 Bft) S 180 -0,4 C 2,2 C 0,0 km/h (0 Bft)
11.03.2015 12:35 2,5 C 2,2 C 83 % 83 % 1026,6 hPa 0,0 l/m 1,1 km/h (1 Bft) W 270 -0,4 C 2,2 C 2,3 km/h (1 Bft)
11.03.2015 12:40 2,6 C 2,2 C 83 % 83 % 1026,6 hPa 0,0 l/m 1,0 km/h (0 Bft) SW 225 -0,4 C 2,4 C 2,7 km/h (1 Bft)
11.03.2015 12:45 3,0 C 2,4 C 83 % 83 % 1026,6 hPa 0,0 l/m 1,1 km/h (1 Bft) SW 225 -0,2 C 3,0 C 4,3 km/h (1 Bft)
11.03.2015 12:50 3,2 C 2,4 C 83 % 83 % 1026,8 hPa 0,0 l/m 1,8 km/h (1 Bft) W-SW 247 -0,2 C 3,4 C 3,4 km/h (1 Bft)
11.03.2015 12:55 3,8 C 2,6 C 83 % 83 % 1026,8 hPa 0,0 l/m 2,4 km/h (1 Bft) NW 315 0,0 C 4,2 C 2,3 km/h (1 Bft)
11.03.2015 13:00 4,2 C 2,8 C 83 % 83 % 1026,8 hPa 0,0 l/m 1,9 km/h (1 Bft) S 180 0,2 C 4,8 C 0,0 km/h (0 Bft)
11.03.2015 13:05 4,4 C 3,1 C 82 % 82 % 1026,8 hPa 0,0 l/m 1,6 km/h (1 Bft) SW 225 0,3 C 5,5 C 2,4 km/h (1 Bft)
11.03.2015 13:10 4,5 C 3,1 C 82 % 82 % 1026,6 hPa 0,0 l/m 1,9 km/h (1 Bft) S 180 0,3 C 5,8 C 2,4 km/h (1 Bft)
11.03.2015 13:15 4,5 C 3,2 C 81 % 81 % 1026,6 hPa 0,0 l/m 2,6 km/h (1 Bft) W-SW 247 0,3 C 6,0 C 1,9 km/h (1 Bft)
11.03.2015 13:20 5,0 C 3,3 C 81 % 81 % 1026,6 hPa 0,0 l/m 2,6 km/h (1 Bft) S-SO 157 0,4 C 6,2 C 3,4 km/h (1 Bft)
11.03.2015 13:25 5,3 C 3,5 C 81 % 81 % 1026,6 hPa 0,0 l/m 2,6 km/h (1 Bft) S-SO 157 0,6 C 6,3 C 3,2 km/h (1 Bft)
11.03.2015 13:30 5,1 C 3,6 C 81 % 81 % 1026,2 hPa 0,0 l/m 2,6 km/h (1 Bft) S-SO 157 0,7 C 6,3 C 3,2 km/h (1 Bft)
11.03.2015 13:35 5,3 C 3,6 C 80 % 80 % 1026,2 hPa 0,0 l/m 3,1 km/h (1 Bft) W-SW 247 0,5 C 7,1 C 2,4 km/h (1 Bft)
11.03.2015 13:40 5,2 C 3,7 C 80 % 80 % 1026,2 hPa 0,0 l/m 3,1 km/h (1 Bft) W-SW 247 0,6 C 7,1 C 2,4 km/h (1 Bft)
11.03.2015 13:45 4,5 C 3,5 C 80 % 80 % 1026,2 hPa 0,0 l/m 3,1 km/h (1 Bft) W-SW 247 0,4 C 7,1 C 2,4 km/h (1 Bft)
11.03.2015 13:50 4,3 C 3,4 C 80 % 80 % 1026,3 hPa 0,0 l/m 3,1 km/h (1 Bft) W-SW 247 0,3 C 7,1 C 2,4 km/h (1 Bft)
11.03.2015 13:55 4,1 C 3,4 C 80 % 80 % 1026,3 hPa 0,0 l/m 0,0 km/h (0 Bft) W-SW 247 0,3 C 7,1 C 0,0 km/h (0 Bft)
11.03.2015 14:00 4,0 C 3,3 C 80 % 80 % 1026,3 hPa 0,0 l/m 0,0 km/h (0 Bft) W-SW 247 0,2 C 7,1 C 0,0 km/h (0 Bft)
11.03.2015 14:05 3,9 C 3,3 C 79 % 79 % 1026,3 hPa 0,0 l/m 0,0 km/h (0 Bft) W-SW 247 0,0 C 7,1 C 0,0 km/h (0 Bft)
11.03.2015 14:10 4,4 C 3,3 C 79 % 79 % 1026,3 hPa 0,0 l/m 0,0 km/h (0 Bft) W-SW 247 0,0 C 7,1 C 0,0 km/h (0 Bft)
11.03.2015 14:15 4,6 C 3,4 C 79 % 79 % 1026,3 hPa 0,0 l/m 0,0 km/h (0 Bft) W-SW 247 0,1 C 7,1 C 0,0 km/h (0 Bft)
11.03.2015 14:20 5,0 C 3,5 C 79 % 79 % 1026,3 hPa 0,0 l/m 0,0 km/h (0 Bft) W-SW 247 0,2 C 7,1 C 0,0 km/h (0 Bft)
11.03.2015 14:25 5,1 C 3,7 C 79 % 79 % 1026,3 hPa 0,0 l/m 0,0 km/h (0 Bft) W-SW 247 0,4 C 7,1 C 0,0 km/h (0 Bft)
11.03.2015 14:30 5,1 C 3,7 C 79 % 79 % 1026,1 hPa 0,0 l/m 0,0 km/h (0 Bft) W-SW 247 0,4 C 7,1 C 0,0 km/h (0 Bft)
11.03.2015 14:35 5,1 C 3,8 C 79 % 79 % 1026,1 hPa 0,0 l/m 0,0 km/h (0 Bft) W-SW 247 0,5 C 7,1 C 0,0 km/h (0 Bft)
11.03.2015 14:40 4,9 C 3,8 C 79 % 79 % 1026,1 hPa 0,0 l/m 0,0 km/h (0 Bft) W-SW 247 0,5 C 7,1 C 0,0 km/h (0 Bft)
11.03.2015 14:45 4,5 C 3,7 C 78 % 78 % 1026,1 hPa 0,0 l/m 0,0 km/h (0 Bft) W-SW 247 0,2 C 7,1 C 0,0 km/h (0 Bft)
11.03.2015 14:50 4,5 C 3,6 C 78 % 78 % 1026,1 hPa 0,0 l/m 0,0 km/h (0 Bft) W-SW 247 0,1 C 7,1 C 0,0 km/h (0 Bft)
11.03.2015 14:55 4,9 C 3,7 C 78 % 78 % 1026,1 hPa 0,0 l/m 0,0 km/h (0 Bft) W-SW 247 0,2 C 7,1 C 0,0 km/h (0 Bft)
11.03.2015 15:00 4,9 C 3,7 C 78 % 78 % 1026,1 hPa 0,0 l/m 0,0 km/h (0 Bft) W-SW 247 0,2 C 7,1 C 0,0 km/h (0 Bft)
11.03.2015 15:05 4,7 C 3,7 C 78 % 78 % 1026,1 hPa 0,0 l/m 0,0 km/h (0 Bft) W-SW 247 0,2 C 7,1 C 0,0 km/h (0 Bft)
11.03.2015 15:10 4,5 C 3,6 C 78 % 78 % 1026,2 hPa 0,0 l/m 0,0 km/h (0 Bft) W-SW 247 0,1 C 7,1 C 0,0 km/h (0 Bft)
11.03.2015 15:15 4,4 C 3,6 C 78 % 78 % 1026,2 hPa 0,0 l/m 0,0 km/h (0 Bft) W-SW 247 0,1 C 7,1 C 0,0 km/h (0 Bft)
11.03.2015 15:20 4,2 C 3,5 C 78 % 78 % 1026,2 hPa 0,0 l/m 0,0 km/h (0 Bft) W-SW 247 0,0 C 7,1 C 0,0 km/h (0 Bft)
11.03.2015 15:25 4,8 C 3,5 C 78 % 78 % 1026,2 hPa 0,0 l/m 0,0 km/h (0 Bft) W-SW 247 0,0 C 7,1 C 0,0 km/h (0 Bft)
11.03.2015 15:30 5,8 C 3,8 C 78 % 78 % 1025,9 hPa 0,0 l/m 0,0 km/h (0 Bft) W-SW 247 0,3 C 7,1 C 0,0 km/h (0 Bft)
11.03.2015 15:35 6,8 C 4,2 C 77 % 77 % 1025,9 hPa 0,0 l/m 0,0 km/h (0 Bft) W-SW 247 0,5 C 7,1 C 0,0 km/h (0 Bft)
11.03.2015 15:40 6,2 C 4,3 C 77 % 77 % 1025,9 hPa 0,0 l/m 0,0 km/h (0 Bft) W-SW 247 0,6 C 7,1 C 0,0 km/h (0 Bft)
11.03.2015 15:45 5,7 C 4,2 C 76 % 76 % 1025,9 hPa 0,0 l/m 0,0 km/h (0 Bft) W-SW 247 0,4 C 7,1 C 0,0 km/h (0 Bft)
11.03.2015 15:50 5,6 C 4,2 C 76 % 76 % 1026,0 hPa 0,0 l/m 0,0 km/h (0 Bft) W-SW 247 0,4 C 7,1 C 0,0 km/h (0 Bft)
11.03.2015 15:55 5,4 C 4,2 C 76 % 76 % 1026,0 hPa 0,0 l/m 0,0 km/h (0 Bft) W-SW 247 0,4 C 7,1 C 0,0 km/h (0 Bft)
11.03.2015 16:00 5,2 C 4,0 C 76 % 76 % 1026,0 hPa 0,0 l/m 0,0 km/h (0 Bft) W-SW 247 0,2 C 7,1 C 0,0 km/h (0 Bft)
11.03.2015 16:05 5,2 C 4,2 C 75 % 75 % 1026,0 hPa 0,0 l/m 0,0 km/h (0 Bft) W-SW 247 0,2 C 7,1 C 0,0 km/h (0 Bft)
11.03.2015 16:10 5,4 C 4,2 C 75 % 75 % 1026,0 hPa 0,0 l/m 0,0 km/h (0 Bft) W-SW 247 0,2 C 7,1 C 0,0 km/h (0 Bft)
11.03.2015 16:15 5,8 C 4,3 C 75 % 75 % 1026,0 hPa 0,0 l/m 0,0 km/h (0 Bft) W-SW 247 0,3 C 7,1 C 0,0 km/h (0 Bft)
11.03.2015 16:20 6,1 C 4,3 C 75 % 75 % 1026,0 hPa 0,0 l/m 0,0 km/h (0 Bft) W-SW 247 0,3 C 7,1 C 0,0 km/h (0 Bft)
11.03.2015 16:25 6,5 C 4,5 C 74 % 74 % 1026,0 hPa 0,0 l/m 0,0 km/h (0 Bft) W-SW 247 0,3 C 7,1 C 0,0 km/h (0 Bft)
11.03.2015 16:30 6,5 C 4,6 C 73 % 73 % 1025,9 hPa 0,0 l/m 0,0 km/h (0 Bft) W-SW 247 0,2 C 7,1 C 0,0 km/h (0 Bft)
11.03.2015 16:35 6,0 C 4,7 C 73 % 73 % 1025,9 hPa 0,0 l/m 0,0 km/h (0 Bft) W-SW 247 0,3 C 7,1 C 0,0 km/h (0 Bft)
11.03.2015 16:40 5,7 C 4,7 C 72 % 72 % 1025,9 hPa 0,0 l/m 0,0 km/h (0 Bft) W-SW 247 0,1 C 7,1 C 0,0 km/h (0 Bft)
11.03.2015 16:45 5,4 C 4,6 C 72 % 72 % 1025,9 hPa 0,0 l/m 0,0 km/h (0 Bft) W-SW 247 -0,0 C 7,1 C 0,0 km/h (0 Bft)
11.03.2015 16:50 4,6 C 4,3 C 72 % 72 % 1026,0 hPa 0,0 l/m 0,0 km/h (0 Bft) W-SW 247 -0,3 C 7,1 C 0,0 km/h (0 Bft)
11.03.2015 16:55 4,0 C 4,0 C 72 % 72 % 1026,0 hPa 0,0 l/m 0,0 km/h (0 Bft) W-SW 247 -0,6 C 7,1 C 0,0 km/h (0 Bft)
11.03.2015 17:00 3,7 C 3,7 C 73 % 73 % 1026,0 hPa 0,0 l/m 0,0 km/h (0 Bft) W-SW 247 -0,7 C 7,1 C 0,0 km/h (0 Bft)
11.03.2015 17:05 3,8 C 3,5 C 73 % 73 % 1026,0 hPa 0,0 l/m 0,0 km/h (0 Bft) W-SW 247 -0,9 C 7,1 C 0,0 km/h (0 Bft)
11.03.2015 17:10 3,6 C 3,5 C 73 % 73 % 1026,1 hPa 0,0 l/m 0,0 km/h (0 Bft) W-SW 247 -0,9 C 7,1 C 0,0 km/h (0 Bft)
11.03.2015 17:15 3,4 C 3,3 C 73 % 73 % 1026,1 hPa 0,0 l/m 0,0 km/h (0 Bft) W-SW 247 -1,1 C 7,1 C 0,0 km/h (0 Bft)
11.03.2015 17:20 3,2 C 3,2 C 73 % 73 % 1026,1 hPa 0,0 l/m 0,0 km/h (0 Bft) W-SW 247 -1,2 C 7,1 C 0,0 km/h (0 Bft)
11.03.2015 17:25 3,0 C 3,1 C 74 % 74 % 1026,1 hPa 0,0 l/m 0,0 km/h (0 Bft) W-SW 247 -1,1 C 7,1 C 0,0 km/h (0 Bft)
11.03.2015 17:30 2,7 C 2,9 C 75 % 75 % 1025,9 hPa 0,0 l/m 0,0 km/h (0 Bft) W-SW 247 -1,1 C 7,1 C 0,0 km/h (0 Bft)
11.03.2015 17:35 2,6 C 2,8 C 75 % 75 % 1025,9 hPa 0,0 l/m 0,0 km/h (0 Bft) S 180 -1,2 C 7,1 C 0,0 km/h (0 Bft)
11.03.2015 17:40 2,5 C 2,7 C 75 % 75 % 1025,9 hPa 0,0 l/m 1,3 km/h (1 Bft) SO 135 -1,3 C 1,8 C 1,6 km/h (1 Bft)
11.03.2015 17:45 2,2 C 2,4 C 76 % 76 % 1026,1 hPa 0,0 l/m 1,1 km/h (1 Bft) S-SO 157 -1,4 C 1,6 C 0,0 km/h (0 Bft)
11.03.2015 17:47 2,2 C 2,4 C 76 % 76 % 1026,1 hPa 0,0 l/m 1,1 km/h (1 Bft) S-SO 157 -1,4 C 1,6 C 0,0 km/h (0 Bft)
11.03.2015 17:50 2,2 C 2,4 C 76 % 76 % 1026,1 hPa 0,0 l/m 1,1 km/h (1 Bft) S-SO 157 -1,4 C 1,6 C 0,0 km/h (0 Bft)
11.03.2015 17:55 2,0 C 2,3 C 76 % 76 % 1026,1 hPa 0,0 l/m 0,5 km/h (0 Bft) SO 135 -1,5 C 1,4 C 0,0 km/h (0 Bft)
11.03.2015 18:00 2,0 C 2,2 C 76 % 76 % 1026,1 hPa 0,0 l/m 0,6 km/h (0 Bft) W-SW 247 -1,6 C 1,2 C 1,8 km/h (1 Bft)
11.03.2015 18:05 1,9 C 2,1 C 76 % 76 % 1026,1 hPa 0,0 l/m 0,6 km/h (0 Bft) O-NO 67 -1,7 C 1,1 C 0,0 km/h (0 Bft)
11.03.2015 18:10 1,4 C 1,7 C 77 % 77 % 1026,5 hPa 0,0 l/m 0,3 km/h (0 Bft) SO 135 -1,9 C 0,7 C 1,9 km/h (1 Bft)
11.03.2015 18:15 1,4 C 1,7 C 77 % 77 % 1026,5 hPa 0,0 l/m 0,5 km/h (0 Bft) S-SO 157 -1,9 C 0,5 C 2,4 km/h (1 Bft)
11.03.2015 18:20 1,3 C 1,7 C 78 % 78 % 1026,5 hPa 0,0 l/m 1,0 km/h (0 Bft) O-NO 67 -1,7 C 0,3 C 0,0 km/h (0 Bft)
11.03.2015 18:25 1,1 C 1,5 C 78 % 78 % 1026,5 hPa 0,0 l/m 0,6 km/h (0 Bft) S-SO 157 -1,9 C 0,2 C 0,0 km/h (0 Bft)
11.03.2015 18:30 1,3 C 1,6 C 78 % 78 % 1026,5 hPa 0,0 l/m 0,3 km/h (0 Bft) S 180 -1,8 C 0,2 C 0,0 km/h (0 Bft)
11.03.2015 18:35 1,1 C 1,5 C 78 % 78 % 1026,5 hPa 0,0 l/m 0,3 km/h (0 Bft) SO 135 -1,9 C 0,2 C 0,0 km/h (0 Bft)
11.03.2015 18:40 1,3 C 1,5 C 78 % 78 % 1026,5 hPa 0,0 l/m 0,2 km/h (0 Bft) N-NW 337 -1,9 C 0,1 C 0,0 km/h (0 Bft)
11.03.2015 18:45 1,1 C 1,5 C 78 % 78 % 1026,5 hPa 0,0 l/m 0,2 km/h (0 Bft) O-SO 112 -1,9 C 0,1 C 0,0 km/h (0 Bft)
11.03.2015 18:50 0,9 C 1,3 C 78 % 78 % 1026,9 hPa 0,0 l/m 0,0 km/h (0 Bft) S 180 -2,1 C -0,2 C 0,0 km/h (0 Bft)
11.03.2015 18:55 1,0 C 1,4 C 79 % 79 % 1026,9 hPa 0,0 l/m 0,0 km/h (0 Bft) S 180 -1,8 C -0,2 C 0,0 km/h (0 Bft)
11.03.2015 19:00 1,3 C 1,7 C 79 % 79 % 1026,9 hPa 0,0 l/m 0,0 km/h (0 Bft) SW 225 -1,5 C -0,1 C 0,0 km/h (0 Bft)
11.03.2015 19:05 1,3 C 1,8 C 79 % 79 % 1026,9 hPa 0,0 l/m 0,2 km/h (0 Bft) S 180 -1,4 C 0,0 C 0,0 km/h (0 Bft)
11.03.2015 19:10 1,1 C 1,7 C 79 % 79 % 1027,0 hPa 0,0 l/m 0,5 km/h (0 Bft) N-NW 337 -1,5 C -0,2 C 0,0 km/h (0 Bft)
11.03.2015 19:15 1,0 C 1,6 C 78 % 78 % 1027,0 hPa 0,0 l/m 0,3 km/h (0 Bft) SO 135 -1,8 C -0,2 C 0,0 km/h (0 Bft)
11.03.2015 19:20 1,1 C 1,6 C 78 % 78 % 1027,0 hPa 0,0 l/m 0,2 km/h (0 Bft) O-NO 67 -1,8 C -0,2 C 0,0 km/h (0 Bft)
11.03.2015 19:25 1,1 C 1,7 C 77 % 77 % 1027,0 hPa 0,0 l/m 0,2 km/h (0 Bft) SO 135 -1,9 C -0,1 C 0,0 km/h (0 Bft)
11.03.2015 19:30 1,3 C 1,8 C 77 % 77 % 1027,2 hPa 0,0 l/m 0,2 km/h (0 Bft) S 180 -1,8 C 0,1 C 0,0 km/h (0 Bft)
11.03.2015 19:35 1,3 C 1,7 C 76 % 76 % 1027,2 hPa 0,0 l/m 0,6 km/h (0 Bft) S-SO 157 -2,1 C 0,2 C 3,4 km/h (1 Bft)
11.03.2015 19:40 1,2 C 1,5 C 76 % 76 % 1027,2 hPa 0,0 l/m 2,3 km/h (1 Bft) S-SO 157 -2,3 C 0,4 C 3,7 km/h (1 Bft)
11.03.2015 19:45 1,0 C 1,3 C 76 % 76 % 1027,2 hPa 0,0 l/m 3,1 km/h (1 Bft) SO 135 -2,5 C -0,1 C 3,9 km/h (1 Bft)
11.03.2015 19:50 0,9 C 1,2 C 76 % 76 % 1027,4 hPa 0,0 l/m 3,9 km/h (1 Bft) S-SO 157 -2,5 C -0,7 C 3,9 km/h (1 Bft)
11.03.2015 19:55 0,9 C 1,1 C 76 % 76 % 1027,4 hPa 0,0 l/m 3,9 km/h (1 Bft) S-SO 157 -2,6 C -0,7 C 4,3 km/h (1 Bft)
11.03.2015 20:00 0,8 C 1,0 C 77 % 77 % 1027,4 hPa 0,0 l/m 3,9 km/h (1 Bft) S-SO 157 -2,6 C -0,9 C 4,5 km/h (1 Bft)
11.03.2015 20:05 0,8 C 0,9 C 77 % 77 % 1027,4 hPa 0,0 l/m 3,9 km/h (1 Bft) S-SO 157 -2,7 C -1,0 C 4,0 km/h (1 Bft)
11.03.2015 20:10 0,7 C 0,7 C 78 % 78 % 1027,4 hPa 0,0 l/m 4,2 km/h (1 Bft) S-SO 157 -2,7 C -1,2 C 4,8 km/h (1 Bft)
11.03.2015 20:15 0,5 C 0,6 C 78 % 78 % 1027,4 hPa 0,0 l/m 4,2 km/h (1 Bft) S-SO 157 -2,8 C -1,3 C 3,9 km/h (1 Bft)
11.03.2015 20:20 0,4 C 0,5 C 79 % 79 % 1027,4 hPa 0,0 l/m 4,0 km/h (1 Bft) SO 135 -2,7 C -1,6 C 4,8 km/h (1 Bft)
11.03.2015 20:25 0,3 C 0,4 C 79 % 79 % 1027,4 hPa 0,0 l/m 4,0 km/h (1 Bft) S-SO 157 -2,8 C -1,6 C 4,3 km/h (1 Bft)
11.03.2015 20:30 0,1 C 0,3 C 79 % 79 % 1027,5 hPa 0,0 l/m 3,7 km/h (1 Bft) O-SO 112 -2,9 C -1,7 C 4,2 km/h (1 Bft)
11.03.2015 20:35 0,1 C 0,2 C 80 % 80 % 1027,5 hPa 0,0 l/m 3,7 km/h (1 Bft) S-SO 157 -2,8 C -1,9 C 4,5 km/h (1 Bft)
11.03.2015 20:40 0,2 C 0,3 C 80 % 80 % 1027,5 hPa 0,0 l/m 3,9 km/h (1 Bft) SO 135 -2,7 C -2,1 C 4,7 km/h (1 Bft)
11.03.2015 20:45 0,1 C 0,3 C 80 % 80 % 1027,5 hPa 0,0 l/m 4,3 km/h (1 Bft) S-SO 157 -2,7 C -2,4 C 5,1 km/h (1 Bft)
11.03.2015 20:50 -0,3 C 0,1 C 80 % 80 % 1027,6 hPa 0,0 l/m 3,7 km/h (1 Bft) O-NO 67 -2,9 C -2,2 C 0,0 km/h (0 Bft)
11.03.2015 20:55 -0,1 C 0,1 C 80 % 80 % 1027,6 hPa 0,0 l/m 3,1 km/h (1 Bft) S-SO 157 -2,9 C -2,1 C 3,7 km/h (1 Bft)
11.03.2015 21:00 -0,3 C -0,1 C 79 % 79 % 1027,6 hPa 0,0 l/m 2,7 km/h (1 Bft) SO 135 -3,3 C -1,7 C 2,9 km/h (1 Bft)
11.03.2015 21:05 -0,5 C 0,0 C 79 % 79 % 1027,6 hPa 0,0 l/m 2,7 km/h (1 Bft) S-SO 157 -3,2 C -1,9 C 3,4 km/h (1 Bft)
11.03.2015 21:10 -0,7 C -0,3 C 79 % 79 % 1027,8 hPa 0,0 l/m 2,3 km/h (1 Bft) S-SO 157 -3,5 C -1,9 C 6,3 km/h (2 Bft)
11.03.2015 21:15 -0,5 C -0,3 C 79 % 79 % 1027,8 hPa 0,0 l/m 2,9 km/h (1 Bft) SO 135 -3,5 C -2,3 C 3,2 km/h (1 Bft)
11.03.2015 21:20 -0,9 C -0,5 C 79 % 79 % 1027,8 hPa 0,0 l/m 2,9 km/h (1 Bft) S-SO 157 -3,7 C -2,7 C 3,4 km/h (1 Bft)
11.03.2015 21:25 -1,0 C -0,7 C 79 % 79 % 1027,8 hPa 0,0 l/m 2,4 km/h (1 Bft) SO 135 -3,9 C -2,4 C 3,2 km/h (1 Bft)
11.03.2015 21:30 -1,3 C -0,8 C 79 % 79 % 1027,7 hPa 0,0 l/m 2,4 km/h (1 Bft) SO 135 -4,0 C -2,7 C 2,9 km/h (1 Bft)
11.03.2015 21:35 -1,3 C -0,9 C 79 % 79 % 1027,7 hPa 0,0 l/m 1,9 km/h (1 Bft) SO 135 -4,1 C -2,6 C 1,8 km/h (1 Bft)
11.03.2015 21:40 -1,5 C -0,9 C 79 % 79 % 1027,7 hPa 0,0 l/m 1,4 km/h (1 Bft) SO 135 -4,1 C -2,9 C 2,1 km/h (1 Bft)
11.03.2015 21:45 -1,5 C -0,9 C 80 % 80 % 1027,7 hPa 0,0 l/m 1,4 km/h (1 Bft) S-SO 157 -3,9 C -3,0 C 1,9 km/h (1 Bft)
11.03.2015 21:50 -1,7 C -1,0 C 80 % 80 % 1027,8 hPa 0,0 l/m 1,1 km/h (1 Bft) SO 135 -4,0 C -3,0 C 0,0 km/h (0 Bft)
11.03.2015 21:55 -1,7 C -1,2 C 80 % 80 % 1027,8 hPa 0,0 l/m 0,3 km/h (0 Bft) O-SO 112 -4,2 C -3,2 C 0,0 km/h (0 Bft)
11.03.2015 22:00 -1,8 C -1,2 C 80 % 80 % 1027,8 hPa 0,0 l/m 0,0 km/h (0 Bft) S-SW 202 -4,2 C -3,2 C 0,0 km/h (0 Bft)
11.03.2015 22:05 -1,7 C -1,2 C 80 % 80 % 1027,8 hPa 0,0 l/m 0,2 km/h (0 Bft) SO 135 -4,2 C -3,2 C 0,0 km/h (0 Bft)
11.03.2015 22:10 -1,6 C -1,2 C 81 % 81 % 1027,9 hPa 0,0 l/m 0,2 km/h (0 Bft) O-SO 112 -4,0 C -3,2 C 0,0 km/h (0 Bft)
11.03.2015 22:15 -1,6 C -1,0 C 81 % 81 % 1027,9 hPa 0,0 l/m 0,0 km/h (0 Bft) SO 135 -3,8 C -3,1 C 0,0 km/h (0 Bft)
11.03.2015 22:20 -1,5 C -1,2 C 81 % 81 % 1027,9 hPa 0,0 l/m 0,0 km/h (0 Bft) SO 135 -4,0 C -2,9 C 0,0 km/h (0 Bft)
11.03.2015 22:25 -1,4 C -1,0 C 81 % 81 % 1027,9 hPa 0,0 l/m 0,0 km/h (0 Bft) O-NO 67 -3,8 C -2,8 C 0,0 km/h (0 Bft)
11.03.2015 22:30 -1,6 C -1,2 C 81 % 81 % 1027,9 hPa 0,0 l/m 0,0 km/h (0 Bft) N-NO 22 -4,0 C -2,7 C 0,0 km/h (0 Bft)
11.03.2015 22:35 -1,8 C -1,3 C 81 % 81 % 1027,9 hPa 0,0 l/m 0,0 km/h (0 Bft) O-SO 112 -4,1 C -2,8 C 0,0 km/h (0 Bft)
11.03.2015 22:40 -1,8 C -1,4 C 81 % 81 % 1027,9 hPa 0,0 l/m 0,0 km/h (0 Bft) NO 45 -4,2 C -3,0 C 0,0 km/h (0 Bft)
11.03.2015 22:45 -1,8 C -1,4 C 81 % 81 % 1027,9 hPa 0,0 l/m 0,0 km/h (0 Bft) O-NO 67 -4,2 C -3,1 C 0,0 km/h (0 Bft)
11.03.2015 22:50 -2,1 C -1,5 C 81 % 81 % 1027,9 hPa 0,0 l/m 0,0 km/h (0 Bft) W-SW 247 -4,3 C -3,2 C 0,0 km/h (0 Bft)
11.03.2015 22:55 -2,2 C -1,5 C 81 % 81 % 1027,9 hPa 0,0 l/m 0,0 km/h (0 Bft) O-SO 112 -4,3 C -3,4 C 0,0 km/h (0 Bft)
11.03.2015 23:00 -2,1 C -1,5 C 81 % 81 % 1027,9 hPa 0,0 l/m 0,0 km/h (0 Bft) O-SO 112 -4,3 C -3,5 C 0,0 km/h (0 Bft)
11.03.2015 23:05 -2,2 C -1,5 C 81 % 81 % 1027,9 hPa 0,0 l/m 0,0 km/h (0 Bft) N-NO 22 -4,3 C -3,6 C 0,0 km/h (0 Bft)
11.03.2015 23:10 -2,4 C -1,8 C 81 % 81 % 1027,9 hPa 0,0 l/m 0,0 km/h (0 Bft) S 180 -4,6 C -3,7 C 0,0 km/h (0 Bft)
11.03.2015 23:15 -2,4 C -1,8 C 81 % 81 % 1027,9 hPa 0,0 l/m 0,0 km/h (0 Bft) N-NO 22 -4,6 C -3,7 C 0,0 km/h (0 Bft)
11.03.2015 23:20 -2,6 C -1,9 C 81 % 81 % 1027,9 hPa 0,0 l/m 0,0 km/h (0 Bft) O-NO 67 -4,7 C -3,8 C 0,0 km/h (0 Bft)
11.03.2015 23:25 -2,4 C -1,9 C 81 % 81 % 1027,9 hPa 0,0 l/m 0,0 km/h (0 Bft) O-NO 67 -4,7 C -3,8 C 0,0 km/h (0 Bft)
11.03.2015 23:30 -2,5 C -1,8 C 82 % 82 % 1027,9 hPa 0,0 l/m 0,0 km/h (0 Bft) O-SO 112 -4,5 C -3,8 C 0,0 km/h (0 Bft)
11.03.2015 23:35 -2,5 C -1,8 C 82 % 82 % 1027,9 hPa 0,0 l/m 0,0 km/h (0 Bft) NW 315 -4,5 C -3,9 C 0,0 km/h (0 Bft)
11.03.2015 23:40 -2,4 C -1,9 C 82 % 82 % 1027,9 hPa 0,0 l/m 0,2 km/h (0 Bft) S 180 -4,6 C -3,8 C 0,0 km/h (0 Bft)
11.03.2015 23:45 -2,4 C -2,0 C 82 % 82 % 1027,9 hPa 0,0 l/m 0,2 km/h (0 Bft) O-NO 67 -4,7 C -3,7 C 0,0 km/h (0 Bft)
11.03.2015 23:50 -2,5 C -2,0 C 82 % 82 % 1027,9 hPa 0,0 l/m 0,0 km/h (0 Bft) O-NO 67 -4,7 C -3,6 C 0,0 km/h (0 Bft)
11.03.2015 23:55 -2,5 C -2,0 C 82 % 82 % 1027,9 hPa 0,0 l/m 0,0 km/h (0 Bft) W 270 -4,7 C -3,7 C 0,0 km/h (0 Bft)
_ Min-Zeit 23:20 23:55 00:05 00:05 06:00 - 23:55 - - 23:25 23:35 23:55
Minimum _ -2,6 C -2,0 C 64 % 64 % 1025,2 hPa - 0,0 km/h (0 Bft) - - -4,7 C -3,9 C 0,0 km/h (0 Bft)
_ Max-Zeit 15:35 16:40 13:00 13:00 23:55 23:55 08:20 - - 13:30 17:35 08:15
Maximum _ 6,8 C 4,7 C 83 % 83 % 1027,9 hPa 0,0 l/m 6,8 km/h
SW (2 Bft)
- - 0,7 C 7,1 C 14,2 km/h
N-NW (3 Bft)
Durchschnitt _ 2,3 C 2,2 C 77 % 77 % 1026,5 hPa #0,0 l/m 1,5 km/h (1 Bft) S-SO - -1,4 C 2,0 C 2,0 km/h (1 Bft)